Regional Weather Roundup
Issued by NWS

Home | Current Version | Previous Version | Text Only | Print | Product List | Glossary Off
Versions: 1 2 3 4 5 6 7 8 9 10 11 12 13 14 15 16 17 18 19 20 21 22 23 24 25 26 27 28 29 30 31 32 33 34 35 36 37 38 39 40 41 42 43 44 45 46 47 48 49 50

000
ASUS43 KLMK 241202
RWRKY
KENTUCKY REGIONAL WEATHER ROUNDUP
NATIONAL WEATHER SERVICE LOUISVILLE KY
800 AM EDT WED MAY 24 2017

NOTE "FAIR" INDICATES FEW OR NO CLOUDS BELOW 12,000 FEET
WITH NO SIGNIFICANT WEATHER AND/OR OBSTRUCTIONS TO VISIBILITY.

KYZ001>023-026-027-061>063-070>075-241300-
WESTERN AND SOUTH CENTRAL KENTUCKY

CITY           SKY/WX    TMP DP  RH WIND       PRES   REMARKS
PADUCAH        LGT RAIN  57  54  89 N5        29.55F FOG
HENDERSON      RAIN      59  57  93 NW7       29.54F
OWENSBORO      RAIN      60  58  92 N7        29.53F FOG
HOPKINSVILLE   DRIZZLE   59  59 100 N8        29.51F
BOWLING GREEN  LGT RAIN  62  58  86 NW5       29.53S
GLASGOW        NOT AVBL
$$

KYZ024-025-028>034-038-045-046-053-241300-
NORTH CENTRAL KENTUCKY

CITY           SKY/WX    TMP DP  RH WIND       PRES   REMARKS
LOUISVILLE/SDF CLOUDY    64  56  75 CALM      29.51F
LOUISVILLE/LOU CLOUDY    64  61  90 CALM      29.52F
FORT KNOX      LGT RAIN  60  59  96 W3        29.51S
$$

KYZ035>037-039>044-047>052-055>060-089>105-241300-
NORTHEAST KENTUCKY

CITY           SKY/WX    TMP DP  RH WIND       PRES   REMARKS
LEXINGTON      PTSUNNY   60  57  89 SE7       29.55R
COVINGTON      CLOUDY    61  59  93 SE8       29.54R
FRANKFORT      CLOUDY    60  57  89 SE3       29.52F
$$

KYZ054-064>069-076>088-106>120-241300-
SOUTHEAST KENTUCKY

CITY           SKY/WX    TMP DP  RH WIND       PRES   REMARKS
JACKSON        CLOUDY    59  57  93 CALM      29.57F
LONDON         FOG       59  57  93 VRB3      29.56F VSB 1/4
SOMERSET       CLOUDY    57  57 100 CALM      29.56S FOG
MIDDLESBORO    CLOUDY    60  60 100 CALM      29.59R
MONTICELLO     CLOUDY    61  59  93 NE8       29.56F
$$





USA.gov is the U.S. government's official web portal to all federal, state and local government web resources and services.